Weather History for Lakehurst NAS, NJ

Change the Weather History Date:

Thursday, May 23, 2013

  Actual Average Record
Temperature  
Mean Temperature 84 °F -  
Max Temperature 75 °F 69 °F 77 °F (2012)
Min Temperature 77 °F 52 °F 48 °F (2006)
Cooling Degree Days 19    
Growing Degree Days 34 (Base 50)    
Moisture  
Dew Point 67 °F    
Average Humidity 59    
Maximum Humidity 69    
Minimum Humidity 44    
Precipitation  
Precipitation 0.00 in - - ()
Sea Level Pressure  
Sea Level Pressure 29.86 in    
Wind  
Wind Speed 11 mph (SSW)    
Max Wind Speed 24 mph    
Max Gust Speed 31 mph    
Averages and records for this station are not official NWS values.
T = Trace of Precipitation, MM = Missing Value Source: NWS Daily Summary

Daily Weather History Graph

Daily Weather History Graph

Search for Another Location

Airport:

Trip Planner

Search our weather history database for the weather conditions in past years. The results will help you decide how hot, cold, wet, or windy it might be!

Date:

Astronomy

May. 23, 2013 Rise Set
Actual Time 5:35 AM EDT 8:13 PM EDT
Civil Twilight 5:04 AM EDT 8:44 PM EDT
Nautical Twilight 4:24 AM EDT 9:24 PM EDT
Astronomical Twilight 3:40 AM EDT 10:08 PM EDT
Moon 6:42 PM EDT (5/23) 4:18 AM EDT (5/23)
Length of Visible Light 15h 40m
Length of Day
14h 37m
Waxing Gibbous, 97% of the Moon is Illuminated
May 23
Waxing Gibbous
May 25
Full
May 31
Last Quarter
Jun 8
New
Jun 16
First Quarter

Hourly Weather History & Observations

Time (EDT) Temp. Heat Index Dew Point Humidity Pressure Visibility Wind Dir Wind Speed Gust Speed Precip Events Conditions
12:00 AM 80.1 °F 82.1 °F 66.0 °F 62% 29.90 in - SSW 6.9 mph - N/A   Mostly Cloudy
1:00 AM 81.0 °F 83.0 °F 66.0 °F 60% 29.89 in - South 8.1 mph - N/A   Partly Cloudy
2:00 AM 80.1 °F 82.1 °F 66.0 °F 62% 29.88 in - WSW 5.8 mph - N/A Thunderstorm Thunderstorm
3:00 AM 81.0 °F 83.0 °F 66.0 °F 60% 29.87 in - South 4.6 mph - N/A   Mostly Cloudy
4:00 AM 80.1 °F 82.3 °F 66.9 °F 64% 29.87 in - SSW 8.1 mph - N/A   Overcast
5:00 AM 79.0 °F - 66.9 °F 66% 29.87 in - SSW 8.1 mph - N/A   Partly Cloudy
6:00 AM 79.0 °F - 66.9 °F 66% 29.89 in - SSW 9.2 mph - N/A   Overcast
7:00 AM 80.6 °F 83.2 °F 68.0 °F 65% 29.91 in - SSW 8.1 mph - N/A   Overcast
7:06 AM 80.1 °F 82.7 °F 68.0 °F 67% 29.90 in - SSW 10.4 mph - N/A   Overcast
7:37 AM 82.4 °F 85.4 °F 68.0 °F 62% 29.91 in - SSW 9.2 mph - N/A   Scattered Clouds
8:00 AM 82.0 °F 84.9 °F 68.0 °F 62% 29.91 in - SSW 10.4 mph - N/A   Partly Cloudy
8:35 AM 84.2 °F 87.3 °F 68.0 °F 58% 29.91 in - SW 10.4 mph - N/A   Mostly Cloudy
9:00 AM 84.0 °F 87.0 °F 68.0 °F 58% 29.90 in - SW 17.3 mph - N/A   Mostly Cloudy
10:00 AM 86.0 °F 89.4 °F 68.0 °F 55% 29.90 in - SSW 13.8 mph 19.6 mph N/A   Mostly Cloudy
10:09 AM 86.0 °F 88.8 °F 66.9 °F 53% 29.90 in - SW 12.7 mph - N/A   Mostly Cloudy
10:49 AM 87.8 °F 90.4 °F 66.2 °F 49% 29.90 in - SSW 12.7 mph 20.7 mph N/A   Mostly Cloudy
11:00 AM 87.1 °F 89.9 °F 66.9 °F 51% 29.89 in - SSW 17.3 mph 20.7 mph N/A   Overcast
11:25 AM 89.6 °F 92.2 °F 66.2 °F 46% 29.90 in - SSW 24.2 mph 31.1 mph N/A   Mostly Cloudy
12:00 PM 89.1 °F 91.0 °F 64.9 °F 45% 29.88 in - SW 19.6 mph 28.8 mph N/A   Mostly Cloudy
1:00 PM 91.0 °F 93.8 °F 66.0 °F 44% 29.86 in - SSW 16.1 mph - N/A   Scattered Clouds
2:00 PM 89.1 °F 93.7 °F 69.1 °F 52% 29.83 in - South 19.6 mph 31.1 mph N/A   Mostly Cloudy
3:00 PM 84.9 °F 89.4 °F 70.0 °F 61% 29.83 in - South 13.8 mph - N/A Rain Light Rain
4:00 PM 87.1 °F 90.6 °F 68.0 °F 53% 29.82 in - South 15.0 mph 25.3 mph N/A   Partly Cloudy
5:00 PM 84.9 °F 87.6 °F 66.9 °F 55% 29.81 in - South 13.8 mph 26.5 mph N/A   Scattered Clouds
6:00 PM 81.0 °F 83.0 °F 66.0 °F 60% 29.81 in - SSW 18.4 mph 25.3 mph N/A   Partly Cloudy
7:00 PM 80.6 °F 82.7 °F 66.2 °F 61% 29.82 in - South 11.5 mph - N/A   Overcast
7:22 PM 80.6 °F 82.3 °F 64.4 °F 58% 29.82 in - South 16.1 mph 20.7 mph N/A   Overcast
8:00 PM 78.8 °F - 66.2 °F 65% 29.82 in - South 12.7 mph 21.9 mph N/A   Overcast
8:06 PM 78.1 °F - 64.9 °F 64% 29.81 in - South 15.0 mph 21.9 mph N/A   Mostly Cloudy
8:49 PM 78.8 °F - 66.2 °F 65% 29.81 in - SSW 12.7 mph 23.0 mph N/A   Overcast
9:00 PM 77.0 °F - 66.0 °F 69% 29.81 in - SSW 11.5 mph - N/A   Overcast
9:40 PM 77.0 °F - 66.2 °F 69% 29.80 in - South 11.5 mph - N/A   Overcast
11:00 PM 77.0 °F - 64.9 °F 66% 29.78 in - South 10.4 mph - N/A   Overcast